Wetbulb
54.90 54.63 54.81 55.28 54.80 53.53 47.70 40.31 39.43 47.52 48.48 40.34 36.54 35.96 39.11 44.24 41.05 40.27 39.58 40.02 41.11 38.24 36.46 36.28 38.09 38.44 40.92 42.62 44.03 40.11 43.63 40.98 35.44 37.84 43.90 45.41 42.86 38.66 36.44 32.87 31.52 31.52 33.24 34.27
54.20 54.40 54.84 54.91 53.97 52.67 44.37 37.42 36.91 43.57 45.25 32.98 32.91 34.23 35.79 38.74 36.58 36.46 37.46 36.59 38.24 36.68 35.62 30.49 37.41 34.31 42.00 40.98 38.70 38.82 41.66 37.53 29.68 31.25 36.50 37.41 34.80 35.93 36.45 34.66 33.96 30.97 28.89 32.93
53.76 54.01 54.43 54.30 53.91 53.16 43.40 36.48 31.03 35.25 36.60 34.26 30.87 30.03 30.79 33.21 37.50 36.44 36.83 35.35 36.87 34.02 31.79 34.68 31.58 32.41 37.96 39.59 39.08 44.16 42.51 36.60 32.82 27.69 32.19 35.39 32.42 34.97 35.93 33.81 27.87 27.67 28.71 30.36
53.74 53.97 54.19 54.30 53.78 52.58 41.59 36.56 33.70 34.77 28.14 29.68 30.55 30.50 30.85 30.51 31.14 36.02 35.77 33.23 33.92 31.87 28.49 30.02 29.60 33.08 34.52 37.62 40.59 39.52 37.36 29.54 31.34 32.05 33.04 33.30 32.33 33.58 34.08 31.25 31.58 27.59 29.26 30.78
53.19 53.73 53.71 54.04 53.40 50.62 40.50 35.12 33.85 35.68 31.67 32.27 29.57 30.51 27.26 30.76 33.52 33.50 32.26 31.14 34.19 33.39 29.65 30.98 29.49 32.16 32.24 31.67 35.21 34.13 35.11 28.97 30.84 27.57 31.13 31.12 29.16 31.77 32.52 32.78 32.65 32.16 33.03 32.00
52.25 52.99 52.79 53.18 52.91 48.28 39.59 39.67 39.42 35.56 32.44 29.81 27.72 28.57 31.19 33.52 33.35 34.47 36.02 34.78 33.33 32.10 33.57 35.99 36.00 36.63 35.99 35.17 33.08 31.81 30.74 28.39 25.75 23.14 28.67 28.29 24.55 28.75 30.25 31.81 33.94 33.95 30.65 36.21
51.90 51.79 52.08 52.70 52.90 49.32 42.50 41.05 39.17 33.42 28.09 31.78 31.74 34.22 34.86 33.06 33.20 31.70 35.48 36.18 32.87 36.21 40.04 38.39 37.26 34.92 34.76 34.89 34.41 35.07 29.76 28.55 28.78 25.03 27.00 18.87 29.20 35.25 35.35 33.70 35.55 37.86 39.16 39.21
51.59 51.40 51.43 51.42 52.30 51.25 44.19 42.84 39.59 34.57 28.14 32.20 32.25 32.84 32.63 33.11 34.18 33.31 34.25 36.22 37.43 39.67 35.60 31.26 27.79 27.14 26.78 29.25 32.17 31.88 32.45 28.87 26.17 20.27 21.23 26.40 29.44 33.42 32.87 31.91 32.57 38.96 32.64 37.11
51.53 51.85 51.69 51.31 51.68 51.53 43.76 42.20 43.02 40.98 36.00 30.11 34.83 33.35 33.41 31.27 31.21 32.85 34.37 37.98 38.78 36.07 34.45 32.52 24.01 21.40 24.09 23.49 27.10 31.77 32.13 31.80 26.00 23.94 20.18 17.24 28.27 33.97 37.05 36.05 26.69 37.76 36.63 37.38
50.80 50.49 50.40 50.93 51.85 51.62 45.34 42.59 43.65 42.68 36.41 35.82 35.18 32.90 31.09 35.18 34.27 31.94 33.95 33.94 33.41 34.62 28.67 25.66 23.83 23.15 28.32 24.18 23.18 24.14 24.29 24.36 22.57 21.47 18.46 24.50 31.84 35.66 37.77 24.87 26.41 36.13 37.94 38.64
50.55 50.34 50.03 50.67 51.17 51.66 45.49 42.32 44.72 41.35 36.72 36.02 37.60 37.87 34.20 34.11 34.00 31.13 32.43 31.96 31.18 30.35 23.35 24.43 23.00 26.63 26.21 25.29 25.62 25.90 22.83 18.79 20.38 19.86 16.74 16.87 36.00 35.26 29.78 34.19 37.99 38.59 37.74 37.46
50.42 50.53 50.55 50.77 51.18 51.60 50.27 43.83 44.13 44.86 41.31 37.37 40.76 41.07 41.55 40.04 39.77 36.09 36.49 34.18 33.81 34.95 31.22 29.06 28.68 24.22 28.66 26.83 21.64 28.61 23.26 27.91 25.14 25.26 25.88 33.36 36.65 35.91 38.14 38.47 37.36 37.09 37.16 38.87
51.02 51.15 50.76 51.20 51.54 51.88 50.64 45.30 44.68 44.18 40.42 37.86 35.40 33.90 39.14 42.32 41.89 42.65 34.77 35.25 37.87 34.77 38.12 34.03 32.94 28.21 25.85 24.32 25.42 25.24 27.80 32.69 29.54 29.61 31.78 34.00 35.81 37.50 38.16 38.51 37.00 37.70 38.92 38.71
50.03 50.31 50.89 51.33 52.04 52.15 51.49 46.91 46.22 45.05 41.42 34.10 34.77 40.14 36.43 40.37 39.81 40.29 41.27 39.22 39.23 38.17 37.71 34.68 32.24 29.41 32.91 28.15 28.29 27.66 31.62 32.60 31.06 30.64 32.71 34.29 35.35 35.51 35.83 37.41 38.21 38.27 38.99 39.34
49.64 50.35 51.03 51.54 52.09 52.05 49.33 45.30 46.64 46.00 41.23 32.80 34.24 39.14 40.18 40.17 39.61 39.30 39.75 38.91 37.49 36.66 34.94 33.49 30.40 34.70 33.71 32.42 33.29 30.00 33.78 31.81 29.53 27.77 33.99 33.63 34.26 37.33 38.34 36.92 37.06 37.97 37.56 37.33
49.83 50.74 51.49 51.89 51.84 51.43 43.29 36.61 39.03 45.24 46.64 38.20 31.64 36.27 36.40 37.52 38.40 37.60 36.81 37.39 36.27 36.87 33.92 34.24 35.77 37.16 34.40 30.07 26.37 33.47 35.43 36.62 37.41 34.67 37.01 36.36 37.20 37.86 37.77 36.40 37.16 38.30 38.46 38.93
50.23 51.61 51.69 51.50 51.42 46.39 42.01 36.21 38.49 47.22 46.04 38.59 32.61 28.76 33.24 35.81 37.05 35.74 34.11 34.90 34.28 36.84 36.33 35.07 34.81 34.39 35.94 31.84 28.37 33.92 34.80 35.01 34.74 35.35 34.43 32.48 34.39 34.52 37.65 38.38 38.71 39.84 39.10 39.35
50.93 51.52 51.27 50.91 50.45 49.10 44.73 47.03 48.11 47.76 42.93 40.72 30.86 29.12 28.59 34.47 31.93 30.57 34.64 33.75 38.13 37.85 36.96 36.86 35.13 36.60 35.05 29.02 31.10 32.33 33.73 33.86 32.87 34.77 36.18 35.67 37.14 37.40 38.00 39.65 38.50 36.66 36.32 36.96
51.07 51.12 50.18 45.34 42.19 39.38 42.37 48.67 48.33 47.14 41.50 32.34 32.14 26.09 20.49 32.94 30.49 33.85 34.69 37.16 32.27 36.71 34.16 34.70 35.29 32.73 28.82 31.35 30.87 32.53 33.62 32.62 35.33 37.85 37.08 37.24 35.93 35.71 36.18 35.98 35.91 35.30 35.33 35.90
50.54 44.94 39.51 34.60 42.64 46.63 44.46 40.19 36.84 38.00 38.74 37.68 31.68 34.38 30.53 31.80 26.70 25.53 30.68 31.98 30.96 27.96 29.89 32.04 32.56 28.14 33.86 33.46 34.00 34.61 36.57 38.70 38.74 34.42 32.67 33.86 33.73 34.60 34.79 35.14 35.81 35.44 34.88 34.55
40.78 36.97 36.10 40.63 44.53 37.37 36.66 33.18 33.62 32.59 31.01 33.53 32.64 32.18 30.18 32.09 28.15 27.03 30.57 30.36 28.23 25.25 24.18 26.71 25.81 23.28 29.82 35.71 35.80 38.27 38.94 38.49 37.52 35.43 35.23 35.48 34.89 34.32 35.01 35.06 35.48 35.31 34.04 33.09
40.56 41.05 42.49 39.88 36.93 33.64 30.19 27.73 27.57 28.14 25.81 28.57 32.09 30.49 30.26 30.78 31.73 33.26 32.50 30.60 29.66 23.73 29.92 28.24 23.43 26.80 32.22 35.70 36.65 37.14 38.39 38.00 36.34 36.48 35.40 35.53 36.36 36.39 35.70 35.01 34.71 34.09 33.58 33.73
41.84 38.09 35.87 33.33 32.21 26.11 25.06 17.86 20.58 23.10 28.44 30.95 29.08 28.04 33.14 32.54 33.91 32.42 30.74 27.01 25.35 28.20 26.08 23.80 24.55 31.82 34.55 35.67 37.45 36.90 37.30 36.04 34.63 34.59 35.45 37.07 36.85 35.98 34.71 33.45 33.96 33.73 34.20 35.13
33.75 30.82 26.76 27.73 25.24 26.32 24.36 24.16 26.59 29.19 29.50 31.27 32.71 30.53 27.77 29.28 29.52 28.99 26.33 26.43 27.88 21.93 21.23 19.32 27.19 33.63 34.05 34.24 34.61 33.38 32.38 33.00 32.98 34.34 36.59 35.61 33.80 32.77 33.24 33.85 35.28 35.21 34.18 35.11
31.48 32.01 24.91 25.15 27.76 27.60 28.12 28.71 28.73 30.89 32.66 31.75 28.92 26.07 26.61 27.06 28.71 29.29 26.08 24.54 19.72 22.10 20.14 23.11 32.34 32.25 32.08 31.53 31.77 31.35 31.49 32.07 32.97 34.88 35.14 32.56 31.79 31.88 32.83 34.93 35.90 35.64 35.24 35.09
34.26 31.91 29.55 28.72 27.28 25.89 26.75 27.70 27.74 31.97 32.78 30.83 28.71 21.90 25.50 23.16 24.45 24.58 21.00 19.22 18.89 20.58 29.34 31.62 31.60 30.68 30.68 30.56 31.30 32.15 33.16 33.43 34.31 35.40 32.52 32.19 32.77 33.55 34.29 34.89 34.62 33.87 34.63 37.02
32.01 30.43 33.14 29.16 28.72 27.48 27.94 28.61 29.01 32.55 30.57 26.19 26.33 22.77 19.30 25.03 22.47 21.69 20.55 24.21 27.83 29.44 29.86 31.09 31.09 30.45 30.41 31.13 31.61 32.56 33.31 34.29 35.38 32.97 32.56 33.16 34.30 35.23 34.05 31.87 32.54 32.84 33.57 34.15
MSLP
1024.89 1024.19 1023.36 1022.46 1021.30 1019.84 1019.27 1020.27 1020.52 1019.14 1018.22 1019.62 1021.34 1022.13 1021.85 1021.15 1020.60 1020.29 1020.03 1019.85 1020.10 1020.49 1020.62 1020.31 1019.91 1019.09 1018.68 1019.16 1019.16 1019.00 1018.85 1017.56 1014.88 1013.20 1012.40 1011.59 1011.33 1011.56 1012.30 1012.95 1011.80 1010.25 1007.77 1004.05
1025.21 1024.58 1023.78 1022.83 1022.14 1021.49 1021.53 1022.27 1021.98 1020.31 1019.84 1022.38 1023.81 1023.57 1022.91 1022.18 1021.83 1021.53 1021.32 1021.24 1021.31 1021.70 1021.81 1021.69 1020.59 1020.16 1019.68 1019.67 1019.77 1019.21 1019.11 1017.90 1016.83 1013.71 1012.72 1013.37 1013.43 1013.55 1014.54 1015.19 1014.07 1012.28 1010.09 1006.38
1025.58 1025.02 1024.36 1023.51 1022.50 1021.89 1022.11 1023.23 1023.68 1023.42 1023.61 1025.06 1025.28 1025.18 1024.34 1023.40 1022.69 1022.58 1022.62 1022.43 1022.38 1022.74 1022.79 1022.74 1021.84 1021.52 1020.84 1020.58 1020.29 1019.58 1019.27 1018.49 1018.50 1017.17 1015.85 1015.94 1014.98 1014.10 1014.03 1015.04 1014.16 1013.07 1011.56 1010.41
1025.86 1025.47 1024.96 1024.18 1023.20 1022.31 1022.64 1024.58 1026.30 1026.52 1026.67 1026.66 1026.57 1026.07 1025.27 1024.54 1023.99 1023.50 1023.35 1023.32 1023.59 1023.96 1023.67 1023.22 1022.62 1022.32 1021.66 1021.00 1020.44 1019.93 1020.06 1019.23 1019.07 1017.78 1016.85 1016.16 1015.36 1014.52 1014.17 1013.27 1012.71 1012.51 1010.35 1010.15
1026.20 1025.84 1025.47 1024.99 1024.09 1023.24 1024.35 1026.28 1026.98 1027.13 1027.39 1027.24 1026.92 1026.61 1025.86 1025.20 1024.86 1024.92 1024.60 1024.47 1024.42 1024.60 1024.44 1024.21 1022.77 1022.88 1022.57 1021.66 1020.65 1020.32 1020.10 1019.26 1018.93 1017.64 1016.82 1016.03 1014.64 1013.80 1013.06 1012.22 1010.90 1010.52 1010.13 1009.43
1026.61 1026.30 1025.90 1025.55 1025.02 1024.46 1026.10 1027.05 1027.16 1027.46 1028.00 1027.87 1027.73 1027.06 1026.17 1025.47 1025.64 1025.28 1024.87 1024.99 1024.91 1024.71 1024.04 1023.62 1023.36 1022.74 1022.04 1021.29 1020.79 1020.12 1020.05 1019.41 1019.24 1017.67 1016.25 1015.51 1014.17 1011.79 1011.09 1010.59 1009.80 1009.83 1009.19 1009.00
1026.83 1026.67 1026.39 1026.09 1025.95 1026.01 1026.78 1027.41 1027.63 1028.20 1028.33 1028.04 1027.50 1026.69 1026.36 1026.13 1026.04 1026.02 1025.40 1025.04 1024.90 1023.89 1023.41 1023.08 1022.43 1021.92 1021.11 1020.40 1019.45 1018.87 1019.39 1018.96 1019.08 1017.52 1016.19 1014.80 1012.42 1011.07 1010.94 1010.09 1009.33 1008.89 1008.71 1009.27
1026.91 1026.89 1026.78 1026.64 1026.40 1026.50 1026.91 1027.34 1027.73 1028.14 1028.26 1027.80 1027.18 1026.64 1026.37 1026.22 1026.09 1025.88 1025.35 1024.60 1024.03 1023.70 1023.81 1023.23 1022.28 1021.44 1020.66 1019.55 1018.54 1017.98 1018.39 1019.15 1018.93 1017.80 1016.70 1014.41 1012.13 1011.04 1011.02 1010.12 1009.11 1009.43 1010.44 1009.41
1026.84 1026.78 1026.76 1026.71 1026.58 1026.51 1027.14 1027.48 1027.52 1027.79 1027.78 1026.95 1026.54 1026.45 1026.32 1026.37 1026.02 1025.53 1024.73 1023.92 1023.65 1023.73 1023.67 1023.83 1023.19 1022.30 1021.89 1020.45 1018.72 1017.90 1018.40 1018.52 1019.10 1018.02 1016.97 1014.71 1011.46 1010.97 1010.71 1009.89 1009.33 1009.57 1009.04 1008.55
1026.68 1026.57 1026.62 1026.60 1026.47 1026.41 1027.01 1027.40 1027.28 1027.34 1027.34 1026.12 1026.01 1026.05 1026.02 1025.89 1025.73 1025.30 1024.58 1024.02 1023.60 1023.66 1023.65 1023.57 1022.93 1022.03 1021.17 1020.35 1019.45 1018.64 1018.59 1018.68 1018.50 1017.64 1016.54 1014.31 1011.20 1010.78 1010.36 1010.29 1010.48 1008.64 1008.72 1008.20
1026.51 1026.38 1026.36 1026.36 1026.33 1026.24 1026.73 1027.06 1027.10 1027.30 1026.89 1025.58 1025.23 1025.13 1025.42 1025.30 1025.27 1025.05 1024.27 1024.37 1022.99 1023.28 1023.52 1023.10 1022.58 1021.87 1021.06 1020.32 1019.15 1018.88 1018.69 1019.02 1017.88 1016.97 1015.77 1013.19 1011.16 1010.73 1010.83 1010.10 1009.46 1008.76 1008.24 1007.72
1026.06 1025.98 1026.10 1026.18 1026.05 1025.95 1026.09 1026.66 1026.61 1026.71 1026.62 1025.20 1024.37 1024.23 1024.06 1023.97 1023.57 1024.27 1024.47 1023.66 1023.08 1023.21 1022.79 1022.57 1022.17 1021.60 1021.07 1020.32 1018.54 1018.06 1017.71 1017.37 1016.56 1016.17 1013.97 1012.04 1010.43 1010.78 1010.00 1009.89 1009.12 1008.54 1007.91 1007.23
1025.67 1025.68 1025.68 1025.69 1025.70 1025.59 1025.77 1026.02 1026.16 1026.52 1025.67 1024.85 1023.67 1022.65 1022.52 1022.52 1022.49 1022.79 1023.64 1022.32 1022.03 1021.64 1021.64 1021.89 1021.31 1020.80 1020.02 1019.27 1017.35 1016.58 1016.30 1016.12 1015.74 1015.37 1011.85 1011.70 1010.33 1010.12 1009.68 1009.27 1008.76 1008.03 1007.45 1006.62
1025.41 1025.24 1025.16 1025.11 1025.19 1025.18 1025.10 1025.41 1025.41 1025.84 1025.49 1024.61 1023.11 1021.51 1021.45 1020.79 1021.15 1021.61 1021.73 1020.66 1021.11 1021.10 1021.39 1021.15 1020.27 1019.65 1019.00 1017.81 1016.72 1015.86 1015.43 1015.08 1013.83 1012.89 1011.91 1010.77 1009.83 1009.59 1009.16 1008.42 1008.01 1007.27 1006.51 1005.91
1024.97 1024.98 1024.75 1024.51 1024.50 1024.53 1024.57 1024.48 1024.14 1024.53 1025.25 1024.33 1023.08 1021.63 1020.31 1020.18 1020.34 1020.29 1020.32 1020.40 1020.35 1020.53 1020.27 1019.64 1019.08 1018.31 1018.17 1016.89 1016.12 1013.35 1014.13 1013.19 1013.10 1011.84 1011.07 1010.78 1009.11 1008.72 1008.38 1007.76 1006.95 1006.30 1005.93 1005.07
1024.47 1024.35 1024.37 1023.99 1024.03 1024.11 1024.56 1024.35 1024.27 1024.06 1024.54 1024.55 1023.61 1021.72 1020.64 1020.31 1019.85 1019.80 1019.44 1019.27 1019.39 1019.54 1019.22 1018.21 1017.56 1016.96 1017.12 1015.99 1014.08 1011.43 1012.09 1012.02 1011.77 1011.11 1010.80 1010.25 1009.19 1008.37 1007.93 1007.48 1006.74 1005.97 1005.51 1004.86
1023.75 1023.66 1023.47 1023.52 1023.55 1024.08 1024.32 1024.05 1023.81 1023.72 1024.31 1024.74 1023.62 1022.81 1021.18 1020.59 1020.17 1019.61 1019.20 1018.73 1018.52 1018.52 1018.04 1017.13 1016.67 1016.18 1016.05 1014.93 1013.56 1010.36 1011.67 1011.63 1011.24 1010.90 1010.54 1009.53 1008.58 1007.83 1007.21 1006.90 1006.23 1005.57 1004.91 1004.28
1023.06 1023.07 1022.84 1022.74 1022.42 1022.92 1023.25 1022.98 1023.05 1023.63 1024.04 1024.23 1024.03 1022.99 1021.95 1021.01 1020.80 1020.53 1019.14 1018.80 1018.09 1017.58 1016.92 1016.36 1015.69 1015.42 1015.05 1014.14 1012.13 1012.01 1011.61 1011.11 1010.90 1010.54 1009.79 1009.35 1008.31 1007.64 1007.02 1006.54 1005.97 1005.08 1004.29 1003.58
1022.58 1022.40 1022.49 1022.63 1022.40 1022.68 1022.61 1022.59 1022.80 1023.15 1023.82 1023.93 1023.77 1023.41 1022.46 1021.41 1021.25 1020.74 1019.84 1019.06 1018.23 1017.19 1016.48 1015.91 1015.70 1014.94 1014.24 1012.98 1012.72 1012.15 1011.51 1011.19 1010.76 1009.89 1009.47 1008.71 1008.08 1007.41 1006.86 1006.46 1005.77 1005.11 1004.01 1003.33
1021.94 1022.17 1022.53 1022.66 1022.37 1022.26 1022.62 1022.85 1023.20 1023.45 1023.44 1023.54 1023.29 1022.76 1022.68 1022.48 1021.75 1020.98 1020.20 1019.10 1018.46 1017.58 1016.31 1015.95 1015.25 1014.30 1013.27 1012.91 1012.70 1012.29 1011.72 1011.35 1010.73 1010.21 1008.78 1008.27 1007.73 1007.27 1006.45 1006.01 1005.36 1004.76 1003.88 1003.05
1022.15 1022.40 1022.57 1022.31 1022.17 1022.47 1022.70 1023.00 1023.19 1023.45 1023.31 1022.80 1022.25 1022.21 1022.30 1021.70 1021.85 1021.10 1020.08 1019.26 1018.46 1017.65 1016.48 1016.20 1015.01 1014.16 1013.37 1012.96 1012.50 1011.83 1011.34 1010.70 1010.18 1009.89 1009.18 1008.54 1007.76 1006.83 1005.99 1005.00 1004.51 1003.94 1003.25 1002.41
1021.90 1022.43 1022.52 1022.61 1022.48 1022.85 1023.02 1022.88 1022.69 1022.69 1022.27 1021.80 1021.67 1021.63 1021.85 1021.58 1021.33 1020.75 1019.68 1019.09 1018.32 1017.03 1016.45 1015.81 1014.60 1013.59 1013.03 1012.56 1011.94 1011.29 1010.79 1010.17 1009.50 1009.23 1008.54 1007.75 1007.03 1006.37 1005.54 1004.58 1003.63 1003.08 1002.38 1001.60
1021.79 1022.48 1022.84 1022.87 1022.41 1022.81 1022.48 1022.14 1021.87 1021.85 1021.03 1021.12 1021.25 1021.51 1021.36 1021.12 1020.94 1020.37 1019.76 1018.71 1017.42 1016.59 1016.12 1014.85 1013.50 1013.10 1012.75 1012.21 1011.55 1010.81 1010.39 1009.88 1009.40 1008.62 1007.87 1006.91 1006.39 1005.59 1004.85 1003.77 1002.92 1002.25 1001.72 1000.93
1021.42 1022.36 1022.58 1022.36 1021.52 1020.78 1020.16 1019.95 1019.84 1020.03 1020.14 1020.46 1020.72 1021.15 1021.23 1020.74 1020.43 1019.65 1019.08 1017.87 1017.37 1016.59 1015.65 1014.30 1013.43 1013.02 1012.52 1011.97 1011.40 1010.89 1009.95 1009.44 1008.88 1008.03 1006.97 1006.46 1005.83 1004.87 1004.05 1003.13 1002.22 1001.61 1000.81 1000.03
1021.08 1021.57 1021.13 1020.54 1019.82 1019.48 1019.47 1019.65 1019.79 1019.75 1019.80 1020.24 1020.61 1020.93 1021.22 1020.69 1019.95 1019.25 1018.68 1017.96 1016.98 1016.00 1014.72 1013.96 1013.61 1013.02 1012.35 1011.56 1010.94 1010.45 1009.69 1008.89 1008.11 1007.40 1006.86 1006.17 1005.41 1004.43 1003.30 1002.49 1001.64 1000.87 1000.15 999.08
1020.12 1019.94 1019.24 1019.18 1019.87 1019.33 1019.46 1019.52 1019.87 1019.63 1019.77 1020.26 1020.59 1021.01 1020.88 1020.07 1019.21 1018.72 1018.14 1017.52 1016.43 1015.50 1014.93 1014.14 1013.49 1012.59 1011.89 1011.26 1010.52 1009.75 1008.87 1008.05 1007.48 1007.06 1006.67 1005.99 1005.01 1004.12 1003.18 1002.26 1001.39 1000.50 999.59 997.79
1018.66 1018.02 1017.70 1018.30 1018.44 1018.77 1018.83 1018.99 1019.24 1019.07 1019.56 1020.17 1020.29 1020.97 1020.37 1019.43 1018.73 1018.12 1017.43 1016.53 1016.01 1015.68 1014.73 1013.84 1013.28 1012.52 1011.60 1010.76 1010.03 1009.25 1008.40 1007.76 1007.30 1006.96 1006.41 1005.67 1004.97 1004.24 1003.46 1002.64 1001.82 1000.94 1000.09 999.19
Wind_Speed
20 22 25 27 29 31 10 3 4 5 6 6 2 3 5 5 6 6 5 3 2 2 5 5 6 7 2 7 9 7 7 8 18 25 20 16 17 9 3 5 15 7 15 24
20 21 24 26 24 19 2 4 2 5 4 5 4 6 5 3 5 4 5 4 6 5 3 6 4 7 7 8 11 4 3 2 10 18 8 8 7 12 15 15 8 14 15 16
17 19 22 25 26 22 4 4 4 6 7 3 5 3 4 6 3 2 3 4 4 5 1 4 7 11 6 11 12 20 14 7 13 17 19 16 26 26 21 14 8 14 16 23
17 17 20 24 26 23 5 5 1 2 4 5 3 2 2 3 4 5 4 5 4 3 4 11 8 14 16 6 18 6 4 14 15 20 23 24 26 26 21 25 20 17 27 25
17 17 18 20 24 15 7 4 3 4 2 3 4 2 3 3 0 2 5 5 6 7 6 11 20 11 9 9 9 10 4 17 20 24 24 24 27 26 27 24 30 25 27 28
15 15 16 18 18 11 4 2 2 4 3 2 2 3 4 4 5 7 6 7 11 12 17 9 11 14 15 16 17 20 13 8 8 20 25 20 16 26 24 23 27 20 18 6
12 13 14 15 14 8 3 0 2 4 3 1 4 4 4 10 11 9 11 11 7 7 11 10 11 10 15 17 20 18 12 15 5 10 16 15 9 15 14 16 18 13 5 5
10 10 11 11 10 8 3 1 3 3 2 4 9 12 10 6 7 11 11 17 12 7 5 8 8 6 5 7 11 10 12 3 6 5 10 18 18 6 10 14 12 13 14 20
9 7 9 10 7 7 4 1 2 2 2 5 6 4 2 5 9 11 7 8 10 5 4 3 7 8 15 6 9 1 2 5 3 10 11 11 14 12 9 8 9 10 15 17
8 9 10 10 7 6 4 1 2 1 3 5 5 6 3 3 8 9 12 9 4 1 4 7 7 8 6 5 7 11 5 4 8 8 6 11 13 4 1 5 9 14 18 17
9 10 10 9 9 9 3 3 5 3 4 9 10 12 12 7 5 9 8 8 2 1 2 3 4 4 4 5 7 3 7 3 8 4 4 12 0 10 8 9 12 18 16 17
9 10 10 11 11 10 4 2 2 4 4 8 8 14 13 11 21 12 7 10 12 4 3 2 2 4 5 9 23 5 8 9 8 8 11 12 22 19 20 17 14 16 18 15
9 9 11 12 13 13 7 3 3 2 3 5 5 5 8 12 16 14 6 5 8 5 9 7 5 9 3 8 12 8 5 7 7 10 17 18 18 19 20 17 15 13 16 19
12 11 12 13 14 13 10 3 3 2 2 5 9 3 5 6 6 12 16 22 9 7 3 7 6 6 6 7 11 11 10 6 13 16 20 21 17 11 10 18 16 19 18 18
14 14 14 13 12 14 6 4 5 6 4 4 7 16 11 7 4 11 15 16 15 9 7 6 8 4 5 5 7 18 7 13 6 15 17 16 21 19 18 19 20 19 18 19
15 15 16 12 12 10 2 4 2 3 4 3 4 5 7 6 5 8 11 11 8 7 3 4 6 9 6 5 8 17 8 12 14 17 15 17 21 20 13 13 15 18 17 17
15 15 13 12 10 1 3 5 4 7 4 3 5 5 5 4 4 4 3 3 3 4 3 5 6 8 7 4 14 29 6 6 6 8 9 10 8 13 14 14 15 14 12 14
15 14 14 12 12 8 4 4 7 7 2 1 3 6 6 3 4 5 2 3 1 4 3 3 3 1 2 6 10 6 7 7 6 8 8 11 15 15 14 13 14 17 17 16
13 12 13 0 3 2 2 5 3 2 2 2 3 2 6 3 3 3 4 2 3 3 3 3 2 2 6 6 7 13 10 5 11 15 15 17 14 15 15 15 16 17 19 18
8 2 1 1 2 3 2 2 2 2 2 3 4 2 5 2 2 4 2 2 3 3 3 1 3 5 5 4 6 6 10 11 12 16 19 20 19 16 15 17 17 15 17 18
2 1 2 2 3 2 1 2 2 2 3 4 4 6 6 2 4 4 2 3 3 4 5 2 3 4 3 5 6 6 10 12 12 9 14 17 16 16 17 21 19 17 17 17
4 2 1 1 1 1 2 4 2 5 6 3 4 4 5 4 2 4 3 4 3 7 2 3 4 4 4 6 11 13 11 14 17 17 18 21 18 16 20 21 19 16 17 16
3 2 1 2 2 4 7 7 4 3 4 4 3 1 2 2 3 3 3 5 7 1 3 5 4 2 5 8 12 13 15 16 19 18 19 16 19 21 19 20 17 18 15 19
4 5 5 6 5 6 7 5 5 4 4 4 3 2 3 3 4 4 5 6 2 4 4 6 2 9 13 14 13 13 18 18 19 21 15 17 20 19 19 17 16 15 18 17
4 5 7 8 5 3 1 2 2 2 3 3 1 1 1 3 4 3 3 4 6 5 5 3 7 16 16 16 16 16 17 18 18 18 14 18 17 18 19 16 16 16 15 16
4 6 4 2 2 2 2 3 2 3 3 3 3 1 3 5 3 3 6 4 6 4 5 10 13 17 17 16 18 18 18 17 15 11 14 16 18 16 15 14 13 12 13 11
7 6 5 3 2 4 3 4 4 4 4 2 3 3 10 3 3 4 4 4 4 9 12 11 15 17 19 19 19 20 19 15 13 12 13 14 15 11 9 11 12 11 10 9
Wind_Direction
9 3 1 360 355 348 33 64 58 321 357 54 39 55 326 324 357 13 341 329 316 352 347 269 246 242 163 34 19 20 349 297 284 287 279 258 245 267 357 275 282 275 260 261
7 5 0 358 0 7 22 70 300 332 49 79 22 329 316 313 23 341 1 324 35 32 350 328 335 345 1 9 357 338 333 289 304 300 319 27 22 333 306 311 264 260 276 273
9 6 3 359 357 3 73 69 30 346 39 38 96 359 292 311 1 130 354 285 69 8 329 225 293 304 315 339 304 315 303 242 255 271 283 286 285 292 288 260 263 284 270 299
8 9 8 5 358 355 76 25 63 167 336 25 68 283 287 300 336 334 13 351 84 30 282 296 263 317 315 299 286 284 302 273 278 277 281 284 284 277 278 277 258 246 270 265
11 16 16 15 1 1 73 82 43 4 1 356 31 356 254 265 241 354 298 246 359 334 291 279 290 295 295 264 284 275 255 275 277 277 276 273 276 278 273 261 270 267 253 265
17 13 15 20 17 25 75 338 16 103 309 55 59 247 252 269 32 284 239 324 323 306 289 278 285 276 271 263 269 275 269 261 273 274 276 282 275 255 263 260 265 268 268 280
15 17 20 17 36 57 104 200 85 81 287 205 224 252 267 291 301 265 289 296 291 253 316 299 281 262 251 253 260 252 256 272 242 270 285 253 289 305 281 269 273 303 303 339
12 14 18 17 18 79 82 126 100 120 245 234 273 273 278 307 296 292 281 284 270 282 299 304 300 300 306 276 235 261 204 232 279 276 283 279 279 343 345 323 304 85 350 309
1 5 8 1 1 19 91 225 136 150 295 237 235 277 269 294 288 285 253 285 297 294 291 307 302 297 288 276 301 347 85 228 207 290 282 277 278 318 15 335 286 333 304 305
339 349 346 349 355 336 105 251 187 250 266 259 233 243 212 223 280 282 290 290 297 342 268 272 267 262 217 241 247 293 292 299 247 265 275 277 270 237 294 335 282 299 304 302
330 330 330 336 332 322 102 229 189 186 247 267 246 263 260 267 230 266 297 315 283 280 209 231 243 240 243 281 262 272 264 292 281 286 236 275 95 336 298 314 305 298 303 298
309 318 328 320 315 313 338 246 208 185 222 260 283 260 244 221 254 267 244 246 275 242 266 267 273 290 275 273 283 275 254 201 255 198 250 275 287 292 296 291 277 296 301 293
307 312 314 311 309 308 302 223 191 225 270 275 300 253 241 227 230 227 238 247 226 225 231 261 239 250 145 264 268 271 260 234 251 290 267 263 282 300 295 294 286 284 286 289
299 302 305 308 306 304 301 249 172 202 285 273 281 329 268 224 230 224 216 247 254 260 229 252 254 259 197 248 264 261 270 272 260 261 279 284 278 274 284 294 286 290 291 288
293 298 300 304 303 301 303 222 219 196 203 273 300 302 280 279 235 235 233 238 245 241 237 236 256 240 233 242 264 260 228 254 254 269 280 285 290 298 299 297 299 300 296 297
289 293 297 300 302 317 1 333 340 201 176 290 301 282 302 318 285 263 248 234 232 216 218 238 227 235 218 241 255 272 218 249 258 270 279 288 291 293 288 288 293 296 297 295
285 289 292 295 294 202 199 201 215 149 122 272 290 277 269 293 287 285 299 295 216 199 227 225 247 253 231 234 258 271 310 278 286 282 296 294 273 291 299 297 290 293 294 294
286 293 298 294 282 248 225 245 230 177 248 232 271 271 328 18 307 304 288 283 223 215 241 223 242 295 257 261 248 317 303 304 268 279 273 261 283 289 294 310 311 306 304 304
294 306 308 9 66 138 178 200 39 124 163 222 224 225 269 4 283 271 298 317 279 288 252 234 212 198 234 253 323 316 319 318 320 318 312 314 310 308 308 313 308 300 300 302
311 47 91 248 199 301 31 35 89 140 176 206 242 160 264 50 342 287 275 265 274 279 248 275 237 253 289 357 313 337 354 322 304 314 317 319 307 302 301 307 302 292 292 296
64 169 223 231 337 70 148 178 180 173 237 211 234 210 240 233 221 253 222 282 260 262 265 211 253 261 256 316 329 296 285 284 296 282 292 302 287 290 298 303 299 292 289 286
169 153 89 353 110 111 162 205 309 195 228 212 207 215 201 268 224 256 239 261 262 251 281 252 258 237 258 281 294 293 306 310 316 308 306 306 295 296 297 297 294 287 285 284
87 85 240 186 196 204 210 195 233 225 196 194 189 271 220 292 236 245 245 249 236 14 236 241 229 224 319 313 313 303 311 312 311 301 299 294 300 300 297 295 290 290 284 291
137 156 228 214 209 228 199 190 167 203 139 157 146 220 211 233 240 233 242 246 289 253 246 240 278 330 323 316 314 309 310 312 307 301 299 306 308 303 298 295 297 297 291 289
168 169 223 222 235 248 219 167 120 205 138 120 37 334 192 249 252 230 275 262 254 235 252 280 334 317 312 311 312 309 307 306 301 309 312 311 313 308 308 309 300 299 291 281
184 221 227 184 240 234 193 160 232 184 138 88 93 244 257 243 216 221 230 234 241 279 327 315 313 306 308 306 305 303 301 298 304 309 314 313 318 314 313 314 317 320 316 300
201 221 193 182 218 206 183 157 213 153 117 181 121 222 228 295 239 240 208 239 313 316 308 309 308 306 308 307 303 301 302 310 304 309 307 319 323 322 324 336 343 342 353 26